RH
42 42 40 34 37 35 38 41 46 42 36 39 53 64 78 74 85 94 96 96 90 90 85 87 92 93 95 97 98 99 98 98 96 97 98 94 91 85 84 77 72 70 75 76
43 38 30 30 32 33 35 42 46 42 36 37 56 76 76 80 87 92 100 97 90 87 84 84 91 92 98 98 97 98 98 97 97 97 99 98 95 87 84 80 74 70 65 70
40 31 26 29 33 34 43 47 46 49 45 46 50 69 65 64 64 65 85 84 84 93 95 90 85 90 93 97 98 98 98 99 98 97 97 97 96 87 84 80 77 68 63 70
33 28 33 35 27 37 45 41 45 51 59 63 46 65 60 60 62 54 58 64 72 84 82 89 86 90 92 93 94 95 97 98 98 97 96 95 96 93 84 82 76 74 66 67
34 30 37 36 26 35 37 37 44 51 56 66 52 67 61 58 72 63 56 50 49 59 54 74 90 78 87 89 89 89 89 94 97 97 98 98 96 95 78 77 76 75 70 68
30 34 35 28 27 33 33 43 48 56 62 85 52 61 77 76 72 67 57 49 43 42 44 44 45 51 69 85 84 80 78 83 89 95 97 98 98 98 89 76 77 80 79 76
37 34 31 31 34 39 50 62 82 73 89 80 53 70 79 68 62 59 56 51 46 42 41 42 42 42 44 64 66 59 64 68 72 84 87 92 98 98 98 98 97 83 78 80
53 59 33 28 41 48 52 54 76 67 67 52 46 76 75 61 54 51 48 50 44 44 42 42 42 41 41 42 45 50 56 55 54 61 76 80 83 88 94 98 98 98 97 96
42 42 31 29 35 40 41 50 40 60 61 52 65 75 66 59 58 55 49 47 50 44 44 43 40 40 41 42 43 44 48 51 51 54 56 59 62 66 74 75 79 88 96 93
39 46 35 34 32 37 41 33 48 64 59 60 59 79 80 74 68 60 56 51 48 46 43 42 40 40 40 40 40 41 42 44 45 46 46 49 53 56 60 66 67 68 72 71
38 39 40 35 38 35 43 42 40 42 49 54 54 62 70 73 66 64 56 49 47 44 44 43 42 41 41 40 40 41 42 42 43 42 42 44 46 45 48 56 59 61 62 61
41 38 54 39 31 28 36 37 34 62 56 53 47 56 57 66 64 57 55 48 46 43 43 44 44 44 44 44 43 43 42 43 43 43 44 45 46 48 49 52 54 54 55 55
38 44 61 54 44 38 43 40 37 36 58 60 60 59 62 62 60 56 56 51 44 43 45 47 48 49 50 48 45 45 44 44 44 45 49 48 49 50 52 55 56 56 58 59
45 41 40 59 50 48 46 36 35 38 72 65 63 75 73 60 60 56 53 50 48 46 45 48 52 54 54 51 49 48 47 45 46 45 51 50 51 52 55 58 59 61 60 62
45 59 54 47 44 55 52 49 47 51 40 51 46 52 64 63 57 56 52 47 46 47 47 50 54 57 58 57 54 51 51 48 50 49 54 52 51 51 53 56 58 60 62 61
53 58 62 68 49 51 63 53 54 51 46 42 40 56 55 52 52 53 53 49 50 51 50 51 52 55 56 61 55 51 51 50 51 50 58 52 53 53 56 56 58 59 61 62
60 65 77 86 61 63 71 60 66 56 52 53 60 59 54 55 54 59 58 54 54 54 54 56 57 60 60 58 54 55 54 53 55 51 57 52 53 55 57 55 58 60 62 64
66 68 89 95 79 93 64 60 65 67 58 55 57 57 55 53 59 57 55 56 57 54 55 57 60 60 58 57 51 51 49 47 47 49 52 48 51 54 56 56 59 64 65 69
58 87 97 96 95 70 70 71 67 67 74 59 58 57 52 55 61 62 51 51 55 57 56 57 56 55 53 54 45 47 48 50 49 46 48 48 50 53 55 59 61 64 71 73
56 66 89 98 96 90 74 64 54 58 76 58 56 56 56 54 72 73 58 53 55 52 49 48 48 46 51 47 44 48 49 50 50 50 49 49 52 54 57 59 64 68 73 73
82 96 95 88 96 90 67 60 62 64 68 61 58 59 61 68 68 62 55 54 49 47 45 44 46 48 50 47 48 53 55 57 52 50 51 51 54 57 59 63 68 71 73 76
81 93 95 94 97 93 62 71 77 79 63 61 63 64 66 64 60 58 50 49 48 50 46 46 51 52 53 51 54 57 57 52 51 52 51 53 57 58 59 70 74 74 78 82
86 80 90 83 81 66 62 70 68 61 64 64 65 64 63 63 58 52 53 53 51 48 48 49 55 58 58 56 56 57 54 54 53 54 55 58 61 64 66 70 76 79 79 79
66 65 92 83 84 81 88 88 88 81 72 59 59 60 58 59 57 59 58 52 54 53 54 55 60 62 59 57 52 58 54 54 57 61 64 67 73 76 73 71 76 79 84 82
83 69 95 96 92 92 94 92 92 83 56 52 53 56 59 61 59 58 57 55 55 52 53 60 64 58 61 60 58 57 54 57 62 67 72 77 74 80 81 78 80 79 79 73
92 93 96 95 83 94 91 88 63 61 63 65 66 68 59 55 56 55 58 57 58 62 62 58 60 60 62 62 63 61 59 60 75 77 73 80 79 86 82 86 87 75 68 68
Wind_Speed
1 7 2 6 3 4 5 4 3 5 4 6 9 8 7 11 16 21 22 21 19 18 18 21 8 10 9 8 8 6 11 7 8 6 5 5 4 5 3 3 5 5 5 5
6 1 5 7 3 5 7 2 4 4 2 6 6 7 5 9 14 16 17 19 21 23 23 22 20 17 12 13 12 11 9 11 7 8 3 4 2 3 3 2 3 3 5 5
3 2 4 5 4 7 4 3 4 4 6 3 10 4 3 3 7 13 15 14 18 22 23 21 20 19 19 18 12 12 12 10 8 7 7 4 1 2 3 2 2 1 4 5
2 1 3 4 1 2 1 5 3 6 2 2 4 2 2 3 11 14 13 14 15 14 13 17 22 22 19 17 20 14 9 10 5 5 7 5 2 3 1 2 1 2 2 4
6 2 3 2 3 1 7 4 6 4 4 3 4 5 4 4 7 10 11 13 13 15 17 17 17 16 18 20 20 18 19 17 13 11 8 2 5 2 1 1 2 2 3 5
4 0 3 3 6 4 6 3 1 3 1 3 4 6 3 5 4 5 6 10 14 15 15 16 13 15 18 17 19 17 18 19 20 15 9 8 8 6 5 4 1 2 3 3
5 2 1 1 5 5 8 6 4 4 3 5 3 5 1 4 6 6 7 9 11 12 14 16 18 18 18 20 17 15 18 19 18 17 17 16 10 5 3 3 3 5 2 2
3 8 2 2 2 2 3 4 4 2 1 5 1 2 2 7 8 6 7 5 7 10 11 14 16 15 15 15 15 15 15 16 17 15 15 15 15 9 7 3 1 0 1 3
5 6 3 2 1 2 4 3 5 2 2 0 3 4 3 6 6 6 6 7 8 9 9 10 12 13 13 14 15 14 16 17 16 15 12 13 13 13 11 12 11 8 5 2
2 5 3 1 2 2 1 2 2 2 1 4 3 4 5 8 7 6 5 5 6 7 8 8 9 10 11 12 12 16 17 16 13 13 12 11 12 11 11 11 13 12 11 13
2 2 8 3 2 3 1 2 2 1 4 3 3 4 6 9 9 9 7 6 5 7 7 8 7 7 8 8 9 11 11 12 13 12 11 11 11 12 10 10 10 11 11 12
2 2 4 9 4 2 0 2 2 3 3 2 3 5 6 8 8 8 7 7 6 6 6 6 7 7 8 9 10 12 13 13 12 11 10 12 12 12 12 11 11 11 11 11
1 2 5 9 2 2 1 2 3 2 2 5 2 4 4 7 8 7 8 7 6 6 6 6 6 6 8 9 9 10 9 9 9 9 8 9 11 12 13 13 14 13 13 12
2 2 6 7 7 2 4 4 4 5 4 3 7 5 7 9 10 7 7 8 7 6 5 5 5 5 5 5 7 8 7 8 8 9 8 10 11 11 10 10 11 12 13 12
3 5 5 10 12 6 11 14 11 12 12 9 2 4 10 11 10 7 6 7 7 5 5 5 4 4 4 5 3 4 6 9 8 9 7 9 9 9 9 10 10 11 11 11
2 5 3 6 10 14 15 14 14 16 15 14 10 3 4 7 8 7 6 7 6 5 6 6 7 8 10 8 7 9 9 9 7 8 4 8 9 10 11 12 12 11 11 11
5 3 2 7 5 7 9 7 3 3 3 5 11 4 7 6 8 6 6 6 5 5 5 5 6 6 6 7 7 9 8 7 7 9 6 10 11 11 10 11 11 12 12 13
4 3 2 5 5 5 1 1 3 5 5 7 11 8 8 7 7 7 6 5 5 4 4 4 5 5 6 6 6 7 7 9 9 8 8 10 10 11 10 11 12 11 11 12
5 5 3 4 4 8 3 1 1 2 2 5 8 9 8 10 7 5 5 4 3 2 3 3 3 4 5 6 6 6 6 6 7 8 10 10 10 12 12 12 12 11 11 12
1 4 5 3 5 6 2 2 2 2 3 4 9 6 3 2 4 2 2 3 4 4 3 4 4 3 5 6 6 5 6 6 6 9 10 10 10 11 12 13 13 12 12 13
4 2 10 9 6 7 3 2 2 3 2 6 7 5 4 3 2 3 4 4 3 3 5 5 5 5 6 6 5 5 5 5 6 9 9 10 9 11 11 13 12 12 13 13
8 7 5 4 5 10 3 2 5 3 4 6 6 4 5 4 4 4 3 2 3 4 4 4 5 5 6 5 5 6 7 7 8 9 10 10 10 10 10 12 10 12 12 13
4 6 5 6 4 2 3 6 4 3 4 3 6 5 4 3 2 2 2 3 3 4 4 3 4 6 5 6 5 7 9 8 10 9 10 10 11 11 10 12 12 11 10 10
3 1 2 2 5 5 5 6 5 7 6 6 5 4 3 1 3 4 5 4 5 4 5 4 5 6 7 5 5 6 9 8 9 10 11 10 10 12 10 9 9 10 9 11
2 4 5 1 4 5 4 4 5 5 5 5 3 2 1 2 3 3 3 4 4 6 5 5 6 8 7 6 8 8 9 9 9 10 10 10 8 10 11 9 9 10 10 13
1 3 4 3 7 2 4 7 6 6 5 3 2 2 3 3 4 3 4 4 4 6 4 6 6 8 10 9 9 10 9 9 8 10 9 8 10 8 9 10 10 16 21 27
Wind_Direction
64 64 331 276 257 235 252 226 264 251 177 102 106 95 44 14 1 18 350 352 9 31 23 13 6 13 35 56 80 78 101 97 116 97 101 113 139 119 102 117 135 143 149 156
24 106 261 286 4 39 356 45 321 292 262 104 130 102 94 44 22 28 350 358 10 17 13 12 10 12 23 46 47 64 79 95 96 79 89 65 27 92 110 130 136 163 150 151
161 229 331 9 29 34 18 90 289 260 312 242 140 119 136 88 74 45 17 10 21 18 11 9 6 16 22 16 37 45 44 50 62 110 87 110 75 76 66 45 76 161 165 157
136 16 37 357 47 76 156 213 220 283 327 210 115 249 95 155 45 38 23 21 21 18 31 19 16 15 17 16 30 35 44 55 49 67 99 110 98 79 142 188 183 188 161 179
265 336 25 335 247 211 238 262 224 218 267 8 300 81 266 16 19 22 12 27 21 25 22 32 19 17 19 26 28 27 32 35 33 33 23 102 94 348 10 74 170 198 198 185
262 155 156 225 291 189 278 308 311 124 123 21 238 119 339 8 9 18 11 19 24 23 25 27 25 32 32 29 33 30 33 30 24 24 28 27 79 64 31 15 313 254 244 235
331 294 324 302 339 3 25 40 1 2 21 225 215 60 136 103 66 67 24 18 22 22 27 20 23 24 28 29 24 32 31 31 29 21 26 21 43 58 52 26 28 358 334 328
344 334 342 7 132 263 304 119 140 248 290 273 175 174 172 129 113 91 65 25 36 32 25 29 21 21 27 30 31 29 37 34 27 22 24 24 23 18 14 345 270 262 309 330
7 297 345 333 317 101 331 44 178 167 245 90 161 83 44 121 107 91 67 45 24 34 38 28 28 24 26 22 27 24 34 32 23 19 18 25 24 21 15 8 16 10 349 345
318 309 287 284 307 256 213 234 78 13 344 303 267 165 184 171 150 123 87 57 42 29 29 41 38 27 23 24 20 24 27 25 22 22 16 22 16 19 18 12 11 9 357 4
340 130 290 352 212 224 306 336 305 169 151 193 289 253 187 165 160 141 134 111 73 52 31 15 20 24 24 29 26 31 31 25 19 18 14 17 17 14 18 16 4 4 360 359
226 183 277 249 314 331 301 215 141 130 280 265 196 266 141 139 132 126 122 118 101 77 49 35 14 5 19 27 22 24 18 14 8 4 10 14 12 9 9 8 0 356 357 353
192 277 332 327 314 356 37 267 218 133 75 223 182 258 177 130 125 131 120 108 95 87 65 40 31 24 12 10 15 20 18 7 1 359 7 11 7 4 2 359 354 351 349 348
42 260 193 231 281 328 281 251 238 182 174 247 228 161 196 168 148 135 117 115 102 86 61 54 42 33 31 15 7 10 5 353 357 0 11 11 6 360 354 350 345 341 341 340
156 230 229 260 274 273 272 268 249 229 230 216 254 183 191 173 148 142 125 108 89 76 62 56 49 31 16 5 18 22 1 353 355 360 7 5 356 349 346 347 341 334 334 328
203 263 268 277 273 259 268 268 253 246 243 244 248 227 97 105 109 107 104 97 82 61 41 27 15 7 2 357 2 5 -0 358 356 350 359 3 354 344 341 338 335 328 325 324
185 196 9 273 304 317 276 259 247 296 40 268 234 159 144 112 114 119 101 87 83 64 40 27 14 5 352 347 352 354 349 340 347 343 356 348 341 340 338 332 325 324 325 319
188 128 95 279 313 240 229 21 176 127 69 88 97 100 100 109 101 98 86 89 70 52 29 10 0 349 340 340 351 343 344 344 346 341 348 343 339 328 322 323 322 319 320 317
192 130 234 257 227 291 191 60 114 188 133 9 130 117 109 111 106 67 74 77 88 64 15 356 351 338 336 345 337 337 336 329 331 337 336 331 328 324 324 323 321 318 310 304
118 139 175 200 248 255 102 135 350 291 242 35 109 109 114 129 172 160 75 68 57 29 10 341 347 336 341 328 326 334 322 326 326 330 323 323 323 322 321 321 321 315 306 304
134 153 220 227 257 271 130 110 305 158 172 86 94 89 67 108 114 134 69 42 24 12 350 352 348 335 318 321 327 320 312 307 314 317 315 317 320 319 314 316 312 309 312 302
169 173 199 191 236 261 16 86 199 122 72 105 102 92 91 92 82 78 68 14 357 347 338 337 333 322 311 325 327 320 318 314 318 316 316 315 315 313 313 307 306 309 305 305
210 193 184 206 227 101 28 100 75 86 117 91 104 85 87 84 51 9 341 340 338 339 332 317 317 307 314 311 316 315 313 311 317 313 312 308 307 308 305 314 308 308 305 307
193 103 186 152 173 142 115 77 62 67 97 96 83 81 75 67 341 333 339 346 339 335 326 312 315 307 300 295 309 292 303 308 308 308 309 308 309 306 317 303 300 302 303 306
141 124 176 34 104 108 163 131 125 120 117 105 85 67 30 351 333 321 332 331 323 316 312 312 307 307 310 310 308 301 308 307 303 307 307 304 306 306 306 297 300 295 298 301
213 164 193 211 130 99 120 143 156 148 127 105 79 6 3 1 331 326 312 302 303 299 315 314 311 313 307 306 303 304 306 304 305 306 306 304 309 299 305 299 294 286 309 314